Location: Chihuahua
(28.6330°N, 106.0830°W)
Time: 03:40:45
(UTC-07:00)

Daily predictions for brighter satellites

Satellite Brightness Start Highest point End
(mag) Time Altitude Azimuth Time Altitude Azimuth Time Altitude Azimuth
CZ-3 R/B 4.2 01:23:40 10° W 02:39:30 71° ESE 02:49:31 10° ESE
Cosmos 2297 Rocket 4.2 03:59:57 22° ENE 03:59:57 22° ENE 04:02:18 10° NE
CZ-3C R/B 4.3 04:03:59 46° SW 04:08:09 54° S 05:54:12 10° ESE
Cosmos 2227 Rocket 4.5 04:14:08 14° NNE 04:14:08 14° NNE 04:14:54 10° NNE
Delta 7925 Rocket 4.4 04:19:35 70° SSE 04:19:35 70° SSE 04:25:51 10° ESE
CZ-3 Stage 3 3.2 04:28:45 35° ENE 04:28:45 35° ENE 04:34:07 10° E
Cosmos 2333 Rocket 2.6 04:43:13 47° NNE 04:44:35 60° ENE 04:50:13 10° SSE
OAO 2 Rocket 4.0 04:58:27 40° NNE 04:58:27 40° NNE 05:02:25 10° ENE
USA 116 4.4 04:54:56 10° S 04:59:33 64° SSW 04:59:33 64° SSW
Tsikada Rocket 4.4 04:54:36 10° N 05:00:56 65° E 05:07:09 10° SSE
Cosmos 841 Rocket 3.5 05:07:23 59° WSW 05:07:23 59° WSW 05:12:09 10° S
Thor Agena Rocket 3.4 05:02:01 10° S 05:07:11 70° WSW 05:08:07 57° NW
Meteor 2-17 Rocket 4.3 05:01:42 10° SSW 05:07:38 59° W 05:13:35 10° N
Cosmos 2219 Rocket 2.1 05:07:48 59° W 05:08:15 61° WSW 05:13:43 10° S
SWIFT 3.9 05:11:32 24° SSW 05:12:16 25° S 05:15:45 10° ESE
Ariane Rocket 3.8 05:10:15 10° NNE 05:15:14 53° E 05:20:12 10° S
Cosmos 220 Rocket 4.2 05:11:01 10° S 05:15:26 74° ESE 05:19:50 10° NNE
PSLV R/B 3.5 05:20:41 60° NE 05:20:41 60° NE 05:23:32 10° NE
Cosmos 1725 Rocket 4.1 05:16:36 10° SSW 05:22:34 49° W 05:28:38 10° N
SKYMED 2 3.8 05:20:06 10° SSE 05:24:24 70° ENE 05:28:43 10° N
COSMOS 2428 4.4 05:26:57 16° SW 05:26:57 16° SW 05:28:35 10° SSW
Cosmos 1766 Rocket 3.7 05:27:29 45° W 05:27:29 45° W 05:31:28 10° SSW
Cosmos 332 Rocket 4.2 05:27:38 40° W 05:27:57 40° WSW 05:32:31 10° S
CSL-04 Rocket 4.0 05:26:26 10° NNE 05:31:42 65° ESE 05:36:54 10° S
Cosmos 2237 Rocket 2.2 05:31:30 22° NNW 05:35:10 62° WSW 05:40:45 10° S
Centaur AC-112 3.4 05:36:52 17° SSW 05:36:52 17° SSW 05:38:03 10° SSE
SL-16 R/B 3.0 05:32:17 10° N 05:37:48 52° ENE 05:43:18 10° SE
ASTRO F (AKARI) 4.3 05:35:51 10° S 05:38:57 54° W 05:39:29 47° WNW
Cosmos 2297 Rocket 3.2 05:41:55 24° NW 05:41:55 24° NW 05:45:48 10° N
ATLAS 3B CENTAUR R/B 4.5 05:37:35 10° SW 05:43:27 44° SE 05:59:07 10° E
Cosmos 968 Rocket 3.5 05:39:03 10° SSW 05:44:11 58° WNW 05:49:24 10° N
Cosmos 1271 Rocket 2.9 05:43:16 10° S 05:47:08 73° E 05:50:57 10° NNE
Tiangong 1 2.9 05:52:08 16° SW 05:52:18 16° SW 05:54:16 10° S
Meteor 1-16 Rocket 4.0 05:47:08 10° SSW 05:52:39 72° W 05:58:02 10° N
SL-14 R/B 3.9 05:49:39 10° N 05:53:39 59° E 05:57:39 10° SSE
Cosmos 2227 Rocket 4.1 05:56:03 11° NW 05:56:03 11° NW 05:56:28 10° NNW
Meteor 1-28 Rocket 3.1 05:51:15 10° S 05:55:02 76° W 05:58:47 10° NNW
CZ-2C R/B 3.3 05:51:45 10° NNE 05:56:11 48° E 06:00:35 10° S
Cosmos 2221 2.9 05:52:11 10° S 05:56:29 68° E 06:00:48 10° NNE
ATLAS 2A CENTAUR R/B 2.0 05:54:43 17° W 05:57:57 63° S 06:00:00 10° E
CZ-4 R/B 2.1 05:54:37 10° NNE 05:58:37 57° E 06:02:40 10° S
Cosmos 371 Rocket 4.3 05:57:26 19° WNW 05:59:25 25° W 06:03:20 10° SSW
DELTA 2 R/B (1) 3.5 05:59:14 10° WSW 06:04:46 80° NNW 06:10:21 10° ENE
Meteor 2-1 Rocket 4.2 05:59:48 10° S 06:05:20 89° E 06:11:01 10° N
GPS 2-05 Rocket1 3.4 06:04:22 20° WNW 06:06:09 37° NNW 06:09:18 10° NE
Aureole 2 Rocket 3.0 06:03:02 10° NNW 06:07:13 53° WSW 06:11:12 10° S
Meteor 1-4 Rocket 3.7 06:05:42 10° SW 06:08:40 23° WNW 06:11:42 10° NNW
Cosmos 1743 Rocket 4.3 06:06:46 10° NNW 06:10:38 30° W 06:14:27 10° SSW
Cosmos 1777 Rocket 4.0 06:06:01 10° SSW 06:11:11 65° WNW 06:16:22 10° N
Cosmos 1461 3.7 06:09:12 14° NW 06:11:58 31° WSW 06:15:35 10° S
COSMO-SKYMED 1 3.5 06:08:45 10° SSW 06:12:26 27° W 06:16:09 10° NW
USA 229 DEB 3.8 06:05:21 10° NNW 06:12:32 80° WSW 06:19:48 10° SSE
USA 229 3.8 06:05:27 10° NNW 06:12:38 81° WSW 06:19:54 10° SSE
Cosmos 1674 4.4 06:14:02 13° WNW 06:15:08 15° W 06:17:21 10° SW
IDEFIX/ARIANE 42P 2.7 06:12:07 10° NNE 06:17:24 88° ESE 06:22:39 10° SSW
SMAP 3.2 06:14:04 10° NNE 06:18:44 80° ESE 06:23:22 10° S
Tiangong 2 2.2 06:19:37 10° SW 06:22:37 46° SE 06:25:38 10° ENE
CZ-3 R/B 4.0 06:13:09 10° W 06:23:26 19° WSW 06:28:22 10° SSW
Cosmos 1626 3.7 06:21:43 10° NNE 06:25:14 38° E 06:28:43 10° SSE
MSX 4.4 06:20:36 10° NNE 06:26:19 65° E 06:32:02 10° S
Cosmos 2333 Rocket 3.9 06:25:50 10° WNW 06:28:13 13° W 06:30:37 10° SW
Cosmos 2058 2.9 06:25:33 10° NNW 06:29:37 61° W 06:33:40 10° S
Cosmos 2034 Rocket 4.0 06:23:34 10° S 06:29:42 76° W 06:35:55 10° N
Cosmos 1805 Rocket 3.9 06:26:11 10° N 06:30:35 71° E 06:34:55 10° SSE
BREEZE-M DEB (TANK) 3.2 06:19:44 10° NW 06:30:39 72° SW 06:33:54 10° SE
ISS -0.9 06:30:49 10° N 06:33:04 17° NE 06:35:19 10° E
Cosmos 1908 3.9 06:29:54 10° S 06:33:39 60° E 06:37:26 10° NNE
